ARIANE 5 DEB [SYLDA] (45028 NORAD) Tracking and Keplerian Element Data

This shows tracking and keplerian element data for the satellite.

Feedback or suggestion? Click here.




ElementValue
Catalog45028
NameARIANE 5 DEB [SYLDA]
Epoch Orbit62
Epoch Day44.60741838
Epoch Year2020
RAAN243.3402
Inclination5.9364
Eccentricity0.7279182
Argument of Perigee201.0055
Mean Anonmoly97.3974
Mean Motion2.28515273
Decay Rate6.33E-05
L11 45028U 20005C 20044.60741838 .00006330 00000-0 17052-2 0 9992
L22 45028 5.9364 243.3402 7279182 201.0055 97.3974 2.28515273 627

Live tracking and technical data element details for ARIANE 5 DEB [SYLDA] (NORAD 45028). ARIANE 5 DEB [SYLDA] can be tracked NOW for your location showing map with azimuth and elevation plus other details from your city location.

Track the satellite on the map from your city or location and see movement details for azimuth, elevation, latitude, longitude, range, height, and movement on the map or in text.







IsCatalogInMostPopularTable: catalog: 45028, numindb: 11
Update: records affected: 1



GetName: 45028 ARIANE 5 DEB [SYLDA]

Hit Count: updated at: Tue, 18 Feb 2020 01:38:34 GMT